{"data":{"norad_id":58918,"intl_designator":"2024-024B","name":"XINGSHIDAI 20","alt_names":[],"object_type":"PAYLOAD","status":"ACTIVE","operator":null,"country":"PRC","launch_date":"2024-02-03","launch_site_code":"SCSLA","launch_vehicle":null,"mission":null,"orbit_class":"UNKNOWN","rcs_meters":null,"size_class":null,"mass_kg":null,"dimensions":null,"purposes":[],"wikipedia_slug":null,"has_3d_model":false,"image_url":null,"decayed_at":null,"tle_current":{"epoch":"2026-09-22T23:49:09.865056Z","epoch_age_seconds":37048,"freshness":"FRESH","line1":"1 58918U 24024B   26265.99247529  .00004937  00000+0  22270-3 0  9999","line2":"2 58918  97.2975 329.3533 0016807 162.4750 197.7070 15.21337135146213","mean_motion":15.21337135,"eccentricity":0.0016807,"inclination_deg":97.2975,"raan_deg":329.3533,"arg_perigee_deg":162.475,"mean_anomaly_deg":197.707,"bstar":0.0002227,"rev_number":14621,"period_min":94.65357591498,"perigee_km":490.24325395004,"apogee_km":513.36949561003,"semimajor_km":6879.94337478,"source":"CELESTRAK","updated_at":"2026-09-23T09:00:19.073616Z"}}}